| time (UTC) | temp C | wind direction | speed KPH | gust KPH | rain 1hr cm | rain 24hr cm | rain mn cm | humidity % | barometer mb |
| 20260905192640 | 10 | 310 | 32.2 | 0.0 | 0.00 | 0.00 | 0.00 | 71 | |
| 20260905182228 | 10 | 300 | 32.2 | 0.0 | 0.00 | 0.00 | 0.00 | 76 | |
| 20260905172305 | 10 | 310 | 29.0 | 49.9 | 0.00 | 0.00 | 0.00 | 71 | |
| 20260905162632 | 12 | 300 | 32.2 | 0.0 | 0.00 | 0.00 | 0.00 | 66 | |
| 20260905152323 | 11 | 300 | 29.0 | 0.0 | 0.00 | 0.00 | 0.00 | 76 | |
| 20260905142109 | 12 | 290 | 25.7 | 0.0 | 0.00 | 0.00 | 0.00 | 76 | |
| 20260905132417 | 12 | 290 | 19.3 | 0.0 | 0.00 | 0.00 | 0.00 | 87 | |
| 20260905122308 | 11 | 280 | 22.5 | 0.0 | 0.00 | 0.00 | 0.00 | 93 | |
| 20260905112319 | 10 | 280 | 25.7 | 0.0 | 0.00 | 0.00 | 0.00 | 93 | |
| 20260905102653 | 10 | 280 | 29.0 | 0.0 | 0.00 | 0.00 | 0.00 | 93 | |
| 20260905092259 | 8 | 280 | 29.0 | 0.0 | 0.00 | 0.00 | 0.00 | 99 | |
| 20260905082251 | 7 | 280 | 14.5 | 0.0 | 0.00 | 0.00 | 0.00 | 99 | |
| 20260905072551 | 7 | 300 | 25.7 | 0.0 | 0.00 | 0.00 | 0.00 | 99 | |
| 20260905062253 | 7 | 300 | 25.7 | 0.0 | 0.00 | 0.00 | 0.00 | 99 | |
| 20260905052248 | 8 | 300 | 32.2 | 49.9 | 0.00 | 0.00 | 0.00 | 93 | |
| 20260905042652 | 10 | 320 | 22.5 | 0.0 | 0.00 | 0.00 | 0.00 | 93 | |
| 20260905032251 | 11 | 340 | 29.0 | 0.0 | 0.00 | 0.00 | 0.00 | 81 | |
| 20260905022249 | 10 | 360 | 35.4 | 53.1 | 0.00 | 0.00 | 0.00 | 93 | |
| 20260905012608 | 11 | 40 | 19.3 | 0.0 | 0.00 | 0.00 | 0.00 | 93 | |
| 20260905002306 | 12 | 300 | 22.5 | 0.0 | 0.00 | 0.00 | 0.00 | 82 | |
| 20260904232337 | 17 | 270 | 14.5 | 46.7 | 0.00 | 0.00 | 0.00 | 63 | |
| 20260904222706 | 17 | 270 | 14.5 | 32.2 | 0.00 | 0.00 | 0.00 | 63 | |
| 20260904212249 | 17 | 280 | 11.3 | 29.0 | 0.00 | 0.00 | 0.00 | 59 | |
| 20260904202248 | 17 | 360 | 14.5 | 35.4 | 0.00 | 0.00 | 0.00 | 63 |